Flag Weather past 2 weeks in Cham, Zug, Switzerland

Now
36 °F

Chilly.


Feels Like: 32 °F
Forecast: 41 / 56 °F
Wind: 5 mph from Northeast

Location: Zurich Town / Ville.

Current Time: Nov 29, 2014 at 4:41:31 AM

Latest Report: Nov 29, 2014 at 3:00 AM


Visibility: N/A

Pressure: 29.90 "Hg

Humidity: 97%

Dew point: 35 °F

Location of ChamLocation

Historic Weather in Cham — Graph

°F

Cham temperature yesterday

Maximum temperature yesterday: 42 °F (at 2:00 PM)
Minimum temperature yesterday: 37 °F (at 11:00 PM)
Average temperature yesterday: 40 °F

Past Weeks' High & Low Weather Summary

 TemperatureHumidityPressure
High56 °F (Nov 24, 3:00 PM)100% (Nov 20, 5:00 AM)30.32 "Hg (Nov 20, 5:00 AM)
Low35 °F (Nov 20, 5:00 AM)66% (Nov 21, 3:00 PM)29.56 "Hg (Nov 15, 9:00 PM)
Average44 °F91%29.98 "Hg
* Reported Nov 14 3:00 AM — Nov 29 3:00 AM, Cham, Weather by CustomWeather, © 2014

Note: Actual official high and low records may vary slightly from our data, if they occured in-between our weather recording intervals... More about our weather records

Advertising

Cham weather history for previous 24 hours

 ConditionsComfort  
Time TempWeatherWind HumidityBarometerVisibility
3:00 AM
Nov 29
36 °FChilly.5 mph97%29.90 "HgN/A
2:00 AM37 °FChilly.3 mph98%29.90 "HgN/A
1:00 AM37 °FChilly.6 mph97%29.89 "HgN/A
12:00 AM37 °FChilly.3 mph98%29.89 "HgN/A
11:00 PM
Nov 28
37 °FChilly.5 mph95%29.88 "HgN/A
10:00 PM38 °FChilly.6 mph93%29.86 "HgN/A
9:00 PM38 °FChilly.6 mph93%29.84 "HgN/A
8:00 PM39 °FChilly.8 mph94%29.82 "HgN/A
7:00 PM40 °FChilly.9 mph92%29.80 "HgN/A
6:00 PM40 °FQuite cool.12 mph93%29.78 "HgN/A
5:00 PM41 °FQuite cool.10 mph91%29.76 "HgN/A
4:00 PM41 °FQuite cool.10 mph89%29.75 "HgN/A
3:00 PM41 °FQuite cool.12 mph89%29.74 "HgN/A
2:00 PM42 °FQuite cool.8 mph88%29.75 "HgN/A
1:00 PM41 °FOvercast.6 mph92%29.76 "HgN/A
12:00 PM40 °FQuite cool.8 mph93%29.78 "HgN/A
11:00 AM40 °FQuite cool.7 mph94%29.80 "HgN/A
10:00 AM40 °FChilly.10 mph95%29.81 "HgN/A
9:00 AM39 °FChilly.9 mph97%29.80 "HgN/A
8:00 AM40 °FChilly.6 mph97%29.80 "HgN/A
7:00 AM40 °FPassing clouds.6 mph97%29.79 "HgN/A
6:00 AM40 °FQuite cool.10 mph97%29.78 "HgN/A
5:00 AM41 °FQuite cool.2 mph97%29.78 "HgN/A
4:00 AM41 °FQuite cool.7 mph96%29.79 "HgN/A
Weather by CustomWeather, © 2014

See weather overviewHow to use our weather pages